This is the latest recevied weather packets stored in our database for station/object KA7EII-13. If no packets are shown the sender has not sent any weather packets the latest 10 day(s).
| Time | Temp. | Humidity | Pressure | Rain* | Wind** | Luminosity | Snow |
|---|---|---|---|---|---|---|---|
| 1777652167 | 14.44° C | 39% | 1112.1 hPa | 0 mm | - | 616 W/m² | - |
| 1777651863 | 13.33° C | 41% | 1111.8 hPa | 0 mm | - | 598 W/m² | - |
| 1777651560 | 13.33° C | 41% | 1112 hPa | 0 mm | - | 565 W/m² | - |
| 1777651256 | 13.33° C | 43% | 1112 hPa | 0 mm | - | 551 W/m² | - |
| 1777650953 | 13.33° C | 42% | 1112.1 hPa | 0 mm | - | 524 W/m² | - |
| 1777650650 | 12.78° C | 43% | 1111.8 hPa | 0 mm | - | 490 W/m² | - |
| 1777650347 | 12.78° C | 42% | 1112 hPa | 0 mm | - | 471 W/m² | - |
| 1777650044 | 11.67° C | 44% | 1112.1 hPa | 0 mm | - | 458 W/m² | - |
| 1777649742 | 12.22° C | 44% | 1112 hPa | 0 mm | - | 431 W/m² | - |
| 1777649438 | 11.67° C | 47% | 1112.1 hPa | 0 mm | - | 406 W/m² | - |
| 1777649135 | 10.56° C | 47% | 1111.8 hPa | 0 mm | - | 370 W/m² | - |
| 1777648832 | 10° C | 49% | 1112 hPa | 0 mm | - | 361 W/m² | - |
| 1777648529 | 10.56° C | 48% | 1111.8 hPa | 0 mm | - | 344 W/m² | - |
| 1777648226 | 11.11° C | 48% | 1112 hPa | 0 mm | - | 328 W/m² | - |
| 1777647921 | 10° C | 47% | 1112.3 hPa | 0 mm | - | 326 W/m² | - |
| 1777647619 | 10° C | 47% | 1112 hPa | 0 mm | - | 333 W/m² | - |
| 1777647314 | 10° C | 48% | 1112.1 hPa | 0 mm | - | 337 W/m² | - |
| 1777647013 | 9.44° C | 49% | 1111.7 hPa | 0 mm | - | 318 W/m² | - |
| 1777646709 | 9.44° C | 53% | 1112 hPa | 0 mm | - | 295 W/m² | - |
| 1777646404 | 7.78° C | 54% | 1111.8 hPa | 0 mm | - | 252 W/m² | - |
| 1777646101 | 7.22° C | 55% | 1111.7 hPa | 0 mm | - | 236 W/m² | - |
| 1777645797 | 6.11° C | 58% | 1111.8 hPa | 0 mm | - | 222 W/m² | - |
| 1777645496 | 5.56° C | 60% | 1111.8 hPa | 0 mm | - | 209 W/m² | - |
| 1777645190 | 4.44° C | 64% | 1111.8 hPa | 0 mm | - | 190 W/m² | - |
| 1777644887 | 3.89° C | 68% | 1111.7 hPa | 0 mm | - | 174 W/m² | - |
* Rain latest hour (hover to see other rain measurements)
** Current wind speed in m/s (hover to see current wind gust speed)